Date,Time,Wetness (Wet Dry or Ice),Wind Speed (m/s),Temperature (C),Humidity (%),Pressure (mb),Radiation (W/m^2)
2019-11-06,06:00:00,DRY,5.03,8.10,7.0,775.00,1.3
2019-11-06,06:05:00,DRY,5.00,8.00,7.0,775.00,1.4
2019-11-06,06:10:00,DRY,4.97,8.00,6.7,775.00,1.4
2019-11-06,06:15:00,DRY,4.10,8.20,7.0,775.00,1.4
2019-11-06,06:20:00,DRY,4.87,8.30,6.3,775.00,0.9
2019-11-06,06:25:00,DRY,5.35,8.40,6.5,775.00,0.7
2019-11-06,06:30:00,DRY,4.67,8.63,6.0,775.00,1.3
2019-11-06,06:35:00,DRY,5.35,8.70,6.0,775.00,1.1
2019-11-06,06:40:00,DRY,5.53,8.93,5.7,775.00,1.0
2019-11-06,06:45:00,DRY,4.45,8.70,7.5,775.00,1.6
2019-11-06,06:50:00,DRY,4.70,8.53,8.0,775.00,1.1
2019-11-06,06:55:00,DRY,5.70,8.45,9.5,775.00,1.5
2019-11-06,07:00:00,DRY,5.90,8.47,11.0,775.00,1.3
2019-11-06,07:05:00,DRY,5.10,8.40,10.0,775.00,1.5
2019-11-06,07:10:00,DRY,4.83,8.10,13.3,775.00,1.9
2019-11-06,07:15:00,DRY,3.80,7.95,12.5,775.00,2.7
2019-11-06,07:20:00,DRY,4.50,8.50,9.0,775.00,4.4
2019-11-06,07:25:00,DRY,4.05,8.10,10.5,775.00,6.5
2019-11-06,07:30:00,DRY,4.53,7.93,10.0,775.00,9.5
2019-11-06,07:35:00,DRY,5.20,7.90,10.5,775.00,12.3
2019-11-06,07:40:00,DRY,4.97,8.33,8.3,775.00,15.1
2019-11-06,07:45:00,DRY,4.60,8.50,7.0,775.00,17.9
2019-11-06,07:50:00,DRY,4.10,8.33,10.0,775.00,20.3
2019-11-06,07:55:00,DRY,4.80,8.10,11.0,775.00,22.8
2019-11-06,08:00:00,DRY,4.37,8.23,11.0,775.00,68.6
2019-11-06,08:05:00,DRY,4.85,8.00,10.0,775.00,148.6
2019-11-06,08:10:00,DRY,4.87,8.23,9.0,775.00,167.5
2019-11-06,08:15:00,DRY,4.70,8.30,10.5,775.00,187.2
2019-11-06,08:20:00,DRY,4.17,8.50,9.0,775.00,207.3
2019-11-06,08:25:00,DRY,4.65,8.30,11.5,775.00,228.1
2019-11-06,08:30:00,DRY,3.67,8.33,12.0,775.00,248.4
2019-11-06,08:35:00,DRY,4.05,8.10,13.0,775.00,268.9
2019-11-06,08:40:00,DRY,3.23,8.30,15.3,775.00,289.9
2019-11-06,08:45:00,DRY,4.80,8.10,23.0,775.00,305.9
2019-11-06,08:50:00,DRY,4.87,7.70,22.0,775.00,329.6
2019-11-06,08:55:00,DRY,4.50,8.05,19.0,775.00,350.1
2019-11-06,09:00:00,DRY,4.77,8.30,13.3,775.00,369.1
2019-11-06,09:05:00,DRY,4.35,8.20,15.0,775.00,388.9
2019-11-06,09:10:00,DRY,5.43,8.47,8.7,775.00,408.4
2019-11-06,09:15:00,DRY,4.10,8.95,9.0,775.00,427.3
2019-11-06,09:20:00,DRY,4.50,8.80,9.7,775.00,445.6
2019-11-06,09:25:00,DRY,4.90,8.85,8.5,775.00,465.1
2019-11-06,09:30:00,DRY,5.10,8.97,10.0,775.00,484.2
2019-11-06,09:35:00,DRY,3.90,8.45,14.5,775.00,501.1
2019-11-06,09:40:00,DRY,5.00,8.13,14.3,775.00,519.2
2019-11-06,09:45:00,DRY,4.30,8.05,13.0,775.00,537.0
2019-11-06,09:50:00,DRY,5.80,8.27,10.0,775.00,554.0
2019-11-06,09:55:00,DRY,6.15,9.35,5.5,775.00,570.2
2019-11-06,10:00:00,DRY,4.90,9.30,5.7,775.00,586.8
2019-11-06,10:05:00,DRY,5.60,9.10,9.0,775.00,602.0
2019-11-06,10:10:00,DRY,4.37,9.10,10.7,775.00,618.1
2019-11-06,10:15:00,DRY,4.90,9.15,12.5,775.00,632.6
2019-11-06,10:20:00,DRY,5.70,8.77,13.7,775.00,646.8
2019-11-06,10:25:00,DRY,4.60,8.10,21.5,775.00,660.8
2019-11-06,10:30:00,DRY,3.90,7.63,23.0,775.00,672.4
2019-11-06,10:35:00,DRY,6.25,7.55,25.0,775.00,687.5
2019-11-06,10:40:00,DRY,5.50,8.27,18.7,775.00,700.2
2019-11-06,10:45:00,DRY,6.60,8.85,13.0,775.00,712.9
2019-11-06,10:50:00,DRY,5.50,9.03,12.3,775.00,725.3
2019-11-06,10:55:00,DRY,5.35,9.25,11.5,775.00,737.3
2019-11-06,11:00:00,DRY,5.47,9.10,14.0,775.00,748.5
2019-11-06,11:05:00,DRY,5.50,9.20,12.0,775.00,759.6
2019-11-06,11:10:00,DRY,6.10,9.13,13.0,775.00,770.5
2019-11-06,11:15:00,DRY,5.30,9.35,11.0,775.50,780.9
2019-11-06,11:20:00,DRY,3.23,9.37,11.0,775.33,790.0
2019-11-06,11:25:00,DRY,5.75,9.55,13.5,775.00,798.5
2019-11-06,11:30:00,DRY,3.80,9.97,14.3,775.00,806.4
2019-11-06,11:35:00,DRY,5.55,9.85,13.5,775.00,814.6
2019-11-06,11:40:00,DRY,4.67,9.90,15.0,775.00,822.0
2019-11-06,11:45:00,DRY,5.05,10.05,16.5,775.00,828.9
2019-11-06,11:50:00,DRY,3.67,10.10,19.3,775.00,835.9
2019-11-06,11:55:00,DRY,5.25,10.00,19.5,775.00,841.4
2019-11-06,12:00:00,DRY,6.73,9.87,18.7,775.00,847.2
2019-11-06,12:05:00,DRY,4.50,9.90,19.5,775.00,852.2
2019-11-06,12:10:00,DRY,5.60,9.70,21.7,775.00,856.6
2019-11-06,12:15:00,DRY,6.00,9.60,25.0,775.00,860.8
2019-11-06,12:20:00,DRY,6.23,9.80,17.7,775.00,864.1
2019-11-06,12:25:00,DRY,2.85,10.05,15.0,775.00,867.2
2019-11-06,12:30:00,DRY,4.13,10.10,18.0,775.00,869.6
2019-11-06,12:35:00,DRY,5.80,10.15,17.0,775.00,871.4
2019-11-06,12:40:00,DRY,6.07,10.17,15.0,775.00,872.7
2019-11-06,12:45:00,DRY,3.45,10.25,13.0,775.00,873.6
2019-11-06,12:50:00,DRY,4.07,10.37,12.0,774.67,874.1
2019-11-06,12:55:00,DRY,5.65,10.40,12.0,775.00,874.1
2019-11-06,13:00:00,DRY,4.70,10.03,19.0,774.33,874.0
2019-11-06,13:05:00,DRY,4.65,9.45,25.0,774.00,872.5
2019-11-06,13:10:00,DRY,4.93,9.67,18.7,774.00,871.6
2019-11-06,13:15:00,DRY,3.90,9.65,19.5,774.00,870.0
2019-11-06,13:20:00,DRY,3.83,9.07,24.7,774.00,867.0
2019-11-06,13:25:00,DRY,4.10,8.65,32.5,774.00,863.3
2019-11-06,13:30:00,DRY,3.60,8.30,34.0,774.00,862.6
2019-11-06,13:35:00,DRY,5.50,9.00,11.0,774.00,856.3
2019-11-06,13:40:00,DRY,4.57,8.57,24.3,774.00,852.6
2019-11-06,13:45:00,DRY,4.75,9.35,24.0,774.00,846.9
2019-11-06,13:50:00,DRY,5.00,9.30,21.3,774.00,841.7
2019-11-06,13:55:00,DRY,4.90,8.90,26.0,774.00,836.2
2019-11-06,14:00:00,DRY,6.27,9.13,21.7,774.00,828.6
2019-11-06,14:05:00,DRY,6.25,8.60,27.0,774.00,822.2
2019-11-06,14:10:00,DRY,6.00,9.33,15.7,774.00,814.1
2019-11-06,14:15:00,DRY,7.50,9.70,15.0,774.00,807.2
2019-11-06,14:20:00,DRY,5.20,9.87,17.0,774.00,797.9
2019-11-06,14:25:00,DRY,5.25,9.60,25.0,774.00,788.2
2019-11-06,14:30:00,DRY,5.13,9.63,19.0,774.00,778.8
2019-11-06,14:35:00,DRY,4.65,9.70,17.0,773.50,769.8
2019-11-06,14:40:00,DRY,6.43,9.43,19.0,774.00,759.0
2019-11-06,14:45:00,DRY,7.00,9.25,18.5,774.00,748.7
2019-11-06,14:50:00,DRY,6.10,9.30,22.3,774.00,736.9
2019-11-06,14:55:00,DRY,4.70,9.45,19.5,774.00,725.5
2019-11-06,15:00:00,DRY,6.10,9.23,22.3,774.00,712.3
2019-11-06,15:05:00,DRY,4.75,9.35,13.0,773.50,700.5
2019-11-06,15:10:00,DRY,5.10,9.83,13.0,773.67,686.1
2019-11-06,15:15:00,DRY,6.15,9.65,15.0,773.00,675.0
2019-11-06,15:20:00,DRY,5.03,9.73,16.3,773.00,659.8
2019-11-06,15:25:00,DRY,6.20,9.65,17.0,773.00,644.8
2019-11-06,15:30:00,DRY,6.20,9.03,24.3,773.00,630.6
2019-11-06,15:35:00,DRY,6.20,8.10,28.5,773.00,614.2
2019-11-06,15:40:00,DRY,7.03,7.50,37.7,773.00,598.5
2019-11-06,15:45:00,WET,6.75,6.05,79.0,773.00,509.6
2019-11-06,15:50:00,WET,5.77,5.00,93.3,773.00,560.6
2019-11-06,15:55:00,DRY,7.10,5.90,60.0,773.00,548.0
2019-11-06,16:00:00,DRY,6.50,7.43,40.7,773.00,531.5
2019-11-06,16:05:00,DRY,7.05,8.05,29.0,773.00,514.4
2019-11-06,16:10:00,DRY,7.17,8.73,19.3,773.00,495.3
2019-11-06,16:15:00,DRY,4.90,9.30,20.0,773.00,477.4
2019-11-06,16:20:00,DRY,6.60,9.07,16.7,773.00,459.8
2019-11-06,16:25:00,DRY,3.30,9.25,21.5,773.00,440.1
2019-11-06,16:30:00,DRY,5.03,8.43,33.0,773.00,420.6
2019-11-06,16:35:00,DRY,3.25,7.80,41.5,773.00,402.1
2019-11-06,16:40:00,DRY,6.27,8.10,30.0,773.00,381.8
2019-11-06,16:45:00,DRY,5.40,6.20,63.5,773.00,362.1
2019-11-06,16:50:00,DRY,4.90,5.43,85.0,773.00,339.1
2019-11-06,16:55:00,WET,5.15,4.90,80.5,773.00,254.9
2019-11-06,17:00:00,DRY,5.73,5.57,75.0,773.00,300.2
2019-11-06,17:05:00,DRY,5.00,6.35,53.5,773.00,280.4
2019-11-06,17:10:00,DRY,4.93,7.63,35.0,773.00,260.9
2019-11-06,17:15:00,DRY,3.70,8.45,24.0,773.00,240.9
2019-11-06,17:20:00,DRY,5.40,8.70,26.0,773.00,221.0
2019-11-06,17:25:00,DRY,5.35,8.60,24.5,773.00,202.2
2019-11-06,17:30:00,DRY,4.20,9.57,14.3,773.00,182.3
2019-11-06,17:35:00,DRY,5.80,9.65,14.5,773.00,163.7
2019-11-06,17:40:00,DRY,6.27,9.30,16.3,773.00,144.2
2019-11-06,17:45:00,DRY,5.25,9.45,25.5,773.00,120.0
2019-11-06,17:50:00,DRY,5.33,8.60,19.7,773.00,94.9
2019-11-06,17:55:00,DRY,6.90,8.35,17.0,773.00,71.8
2019-11-06,18:00:00,DRY,5.87,7.00,33.7,773.00,53.8
2019-11-06,18:05:00,DRY,5.50,6.90,24.5,773.00,37.2
2019-11-06,18:10:00,DRY,5.30,7.40,24.3,773.00,24.4
2019-11-06,18:15:00,DRY,4.85,7.35,21.5,773.00,17.1
2019-11-06,18:20:00,DRY,4.80,7.23,15.0,773.00,13.0
2019-11-06,18:25:00,DRY,4.50,7.60,12.0,773.00,7.4
2019-11-06,18:30:00,DRY,3.93,7.90,10.0,773.00,5.0
2019-11-06,18:35:00,DRY,6.05,7.85,8.5,773.00,2.7
2019-11-06,18:40:00,DRY,6.57,8.23,7.7,773.00,1.9
2019-11-06,18:45:00,DRY,3.90,8.50,19.5,773.00,1.4
2019-11-06,18:50:00,DRY,4.43,7.47,30.0,773.00,1.1
2019-11-06,18:55:00,DRY,5.95,8.55,16.0,773.00,1.0
2019-11-06,19:00:00,DRY,5.90,8.97,13.3,773.00,1.0
2019-11-06,19:05:00,DRY,6.60,9.40,11.5,773.00,1.1
2019-11-06,19:10:00,DRY,5.63,9.03,12.7,773.00,1.2
2019-11-06,19:15:00,DRY,5.50,9.60,11.5,773.00,1.1
2019-11-06,19:20:00,DRY,5.73,9.60,8.0,773.00,1.0
2019-11-06,19:25:00,DRY,4.00,9.40,8.0,773.00,1.0
2019-11-06,19:30:00,DRY,4.50,9.77,7.3,773.00,1.0
2019-11-06,19:35:00,DRY,7.15,9.55,11.5,773.00,1.1
2019-11-06,19:40:00,DRY,3.87,8.43,21.7,773.00,1.6
2019-11-06,19:45:00,DRY,4.30,8.40,19.5,773.00,1.1
2019-11-06,19:50:00,DRY,2.63,8.00,23.0,773.00,0.7
2019-11-06,19:55:00,DRY,1.90,7.35,25.0,773.00,0.9
2019-11-06,20:00:00,DRY,2.63,8.20,18.7,773.00,1.5
2019-11-06,20:05:00,DRY,2.05,7.90,20.5,773.00,1.5
2019-11-06,20:10:00,DRY,3.77,8.73,20.7,773.00,1.6
2019-11-06,20:15:00,DRY,3.85,8.20,34.0,773.00,3.1
2019-11-06,20:20:00,DRY,3.70,7.70,34.7,773.00,0.9
2019-11-06,20:25:00,DRY,6.80,8.70,22.0,773.00,1.1
2019-11-06,20:30:00,DRY,6.03,8.80,16.0,773.00,1.1
2019-11-06,20:35:00,DRY,5.35,8.85,17.0,773.00,0.9
2019-11-06,20:40:00,DRY,5.93,8.60,17.3,773.00,1.1
2019-11-06,20:45:00,DRY,5.00,8.65,17.5,773.00,1.0
2019-11-06,20:50:00,DRY,5.70,9.57,10.7,773.00,0.8
2019-11-06,20:55:00,DRY,5.35,10.00,8.0,773.00,1.4
2019-11-06,21:00:00,DRY,4.87,9.30,10.0,773.00,1.4
2019-11-06,21:05:00,DRY,6.55,8.95,16.5,773.00,1.1
2019-11-06,21:10:00,DRY,5.50,8.17,23.3,773.00,0.8
2019-11-06,21:15:00,DRY,3.70,7.55,24.5,773.00,0.9
2019-11-06,21:20:00,DRY,3.20,8.70,16.0,773.00,0.9
2019-11-06,21:25:00,DRY,2.85,8.55,18.5,773.00,1.2
2019-11-06,21:30:00,DRY,4.17,7.73,25.7,773.00,1.4
2019-11-06,21:35:00,DRY,3.60,9.45,11.0,773.00,1.5
2019-11-06,21:40:00,DRY,4.27,9.73,9.7,773.00,1.4
2019-11-06,21:45:00,DRY,5.65,10.15,8.0,773.00,1.1
2019-11-06,21:50:00,DRY,3.87,9.77,9.0,773.00,1.0
2019-11-06,21:55:00,DRY,4.60,10.05,6.5,773.00,1.1
2019-11-06,22:00:00,DRY,5.77,9.80,8.0,773.00,1.0
2019-11-06,22:05:00,DRY,5.00,9.90,8.5,773.00,1.1
2019-11-06,22:10:00,DRY,5.23,9.73,9.7,773.00,1.2
2019-11-06,22:15:00,DRY,2.50,9.10,16.0,773.00,0.9
2019-11-06,22:20:00,DRY,3.60,8.63,18.7,773.00,1.6
2019-11-06,22:25:00,DRY,4.90,9.40,12.0,773.00,1.4
2019-11-06,22:30:00,DRY,2.53,8.90,18.0,773.00,1.7
2019-11-06,22:35:00,DRY,3.15,7.75,33.0,773.00,1.1
2019-11-06,22:40:00,DRY,2.83,6.97,51.7,773.00,1.2
2019-11-06,22:45:00,DRY,3.95,7.00,41.5,773.00,1.1
2019-11-06,22:50:00,DRY,3.20,6.53,53.0,773.00,1.1
2019-11-06,22:55:00,DRY,5.25,6.45,46.0,773.00,1.1
2019-11-06,23:00:00,DRY,5.30,7.87,32.3,773.00,1.0
2019-11-06,23:05:00,DRY,4.20,7.50,45.0,773.00,1.2
2019-11-06,23:10:00,DRY,5.03,8.00,27.7,773.00,1.5
2019-11-06,23:15:00,DRY,2.45,8.70,22.5,773.00,1.2
2019-11-06,23:20:00,DRY,2.40,8.70,23.3,773.00,0.9
2019-11-06,23:25:00,DRY,3.20,8.55,23.5,773.00,1.8
2019-11-06,23:30:00,DRY,2.83,8.23,24.0,773.00,1.1
2019-11-06,23:35:00,DRY,4.50,8.90,14.0,773.00,1.8
2019-11-06,23:40:00,DRY,2.13,7.97,24.0,773.00,1.2
2019-11-06,23:45:00,DRY,2.95,8.20,20.5,773.00,0.9
2019-11-06,23:50:00,DRY,2.73,7.30,31.0,773.00,1.6
2019-11-06,23:55:00,DRY,2.55,7.75,31.0,773.00,1.2
2019-11-07,00:00:00,DRY,2.77,8.03,25.3,773.00,1.3
2019-11-07,00:05:00,DRY,2.30,8.50,21.0,772.50,2.0
2019-11-07,00:10:00,DRY,2.77,8.13,26.7,772.67,1.1
2019-11-07,00:15:00,DRY,4.10,8.30,24.0,773.00,1.2
2019-11-07,00:20:00,DRY,3.47,7.90,44.3,773.00,1.4
2019-11-07,00:25:00,WET,1.80,4.80,80.5,773.00,1.7
2019-11-07,00:30:00,WET,5.57,4.47,92.0,773.00,3.5
2019-11-07,00:35:00,WET,5.60,4.25,93.5,773.00,4.8
2019-11-07,00:40:00,WET,6.40,4.80,72.0,772.67,0.9
2019-11-07,00:45:00,WET,5.15,4.10,95.5,772.00,5.3
2019-11-07,00:50:00,WET,4.30,4.00,97.0,772.67,10.1
2019-11-07,00:55:00,WET,5.35,4.30,98.0,772.00,24.8
2019-11-07,01:00:00,WET,5.83,4.37,98.0,772.00,44.5
2019-11-07,01:05:00,WET,4.20,4.35,98.5,772.00,67.1
2019-11-07,01:10:00,WET,5.40,4.50,99.0,772.00,81.0
2019-11-07,01:15:00,WET,5.85,4.60,99.0,772.00,86.5
2019-11-07,01:20:00,WET,6.93,4.60,99.0,772.00,89.8
2019-11-07,01:25:00,WET,6.50,4.45,99.0,772.00,87.5
2019-11-07,01:30:00,WET,4.50,4.37,99.0,772.00,85.1
2019-11-07,01:35:00,WET,5.25,4.30,99.0,772.00,90.8
2019-11-07,01:40:00,WET,5.73,4.17,99.0,772.00,93.6
2019-11-07,01:45:00,WET,5.80,4.20,99.0,772.00,86.4
2019-11-07,01:50:00,WET,5.80,4.07,99.0,772.00,79.0
2019-11-07,01:55:00,WET,7.05,3.95,99.0,772.00,90.0
2019-11-07,02:00:00,WET,5.50,3.87,99.0,772.00,84.9
2019-11-07,02:05:00,WET,6.25,3.80,99.0,772.00,77.4
2019-11-07,02:10:00,WET,8.10,4.10,99.0,772.00,88.2
2019-11-07,02:15:00,WET,5.10,4.55,99.0,772.00,83.0
2019-11-07,02:20:00,WET,8.53,4.73,99.0,772.00,81.6
2019-11-07,02:25:00,WET,6.20,4.95,99.0,772.00,79.4
2019-11-07,02:30:00,WET,5.60,4.83,99.0,772.00,68.8
2019-11-07,02:35:00,WET,5.00,4.55,99.0,772.00,71.0
2019-11-07,02:40:00,WET,5.60,4.47,99.0,771.67,69.4
2019-11-07,02:45:00,WET,6.15,4.45,99.0,772.00,66.2
2019-11-07,02:50:00,WET,6.57,4.30,99.3,771.33,68.2
2019-11-07,02:55:00,WET,5.90,4.20,99.0,772.00,145.4
2019-11-07,03:00:00,WET,5.83,4.10,99.3,772.00,125.7
2019-11-07,03:05:00,WET,6.85,4.00,99.5,772.00,117.1
2019-11-07,03:10:00,WET,6.23,4.03,99.0,772.00,99.2
2019-11-07,03:15:00,WET,7.40,3.85,99.0,772.00,92.3
2019-11-07,03:20:00,WET,6.53,3.63,99.3,771.00,85.9
2019-11-07,03:25:00,WET,4.60,3.10,99.0,771.50,68.7
2019-11-07,03:30:00,WET,6.47,3.40,99.3,771.33,70.7
2019-11-07,03:35:00,WET,5.05,3.10,99.5,772.00,66.3
2019-11-07,03:40:00,WET,5.97,3.47,99.0,772.00,64.6
2019-11-07,03:45:00,WET,7.30,4.10,99.5,772.00,65.7
2019-11-07,03:50:00,WET,5.87,4.23,99.3,771.67,63.6
2019-11-07,03:55:00,WET,5.00,4.40,100.0,772.00,62.6
2019-11-07,04:00:00,WET,4.37,4.23,100.0,771.00,54.4
2019-11-07,04:05:00,WET,4.05,3.75,100.0,772.00,53.7
2019-11-07,04:10:00,WET,5.07,3.63,99.7,771.33,46.6
2019-11-07,04:15:00,WET,8.85,3.85,100.0,771.00,49.9
2019-11-07,04:20:00,WET,4.67,3.90,100.0,772.00,50.9
2019-11-07,04:25:00,WET,5.70,3.75,100.0,772.00,51.0
2019-11-07,04:30:00,WET,4.93,3.37,99.7,772.00,46.2
2019-11-07,04:35:00,WET,4.85,3.40,100.0,771.00,40.3
2019-11-07,04:40:00,WET,5.80,3.40,99.7,771.67,44.3
2019-11-07,04:45:00,WET,6.80,3.45,99.0,771.50,44.9
2019-11-07,04:50:00,WET,6.20,3.77,99.3,771.00,46.3
2019-11-07,04:55:00,WET,5.30,4.15,99.0,771.00,47.2
2019-11-07,05:00:00,WET,8.20,4.27,100.0,771.00,47.8
2019-11-07,05:05:00,WET,6.15,4.25,100.0,771.00,44.4
2019-11-07,05:10:00,WET,7.40,4.30,100.0,771.00,58.4
2019-11-07,05:15:00,WET,5.80,4.15,100.0,771.00,49.0
2019-11-07,05:20:00,WET,6.67,4.27,100.0,771.00,49.5
2019-11-07,05:25:00,WET,5.95,4.30,100.0,771.00,54.3
2019-11-07,05:30:00,WET,6.30,4.20,100.0,771.00,57.6
2019-11-07,05:35:00,WET,9.15,4.30,100.0,771.00,45.0
2019-11-07,05:40:00,WET,7.27,4.37,100.0,771.00,47.5
2019-11-07,05:45:00,WET,6.70,4.55,100.0,771.00,43.2
2019-11-07,05:50:00,WET,6.97,4.63,100.0,771.00,48.3
2019-11-07,05:55:00,WET,6.50,4.70,100.0,771.00,47.2
2019-11-07,06:00:00,WET,6.80,4.70,100.0,771.00,54.9
2019-11-07,06:05:00,WET,5.15,4.75,100.0,771.50,58.7
2019-11-07,06:10:00,WET,7.40,4.90,100.0,771.33,53.5
2019-11-07,06:15:00,WET,6.90,4.90,100.0,771.50,55.0
2019-11-07,06:20:00,WET,7.20,4.83,100.0,771.33,49.3
2019-11-07,06:25:00,WET,8.80,4.85,100.0,771.50,57.7
2019-11-07,06:30:00,WET,6.03,4.77,100.0,771.67,55.0
2019-11-07,06:35:00,WET,3.60,4.50,100.0,771.00,56.0
2019-11-07,06:40:00,WET,7.33,4.10,100.0,771.00,42.2
2019-11-07,06:45:00,WET,4.90,3.85,100.0,771.00,35.5
2019-11-07,06:50:00,WET,5.73,3.80,99.0,771.33,26.7
2019-11-07,06:55:00,WET,8.75,3.75,99.0,771.50,23.6
2019-11-07,07:00:00,WET,7.47,3.83,95.0,771.33,26.2
2019-11-07,07:05:00,WET,8.30,3.90,92.5,771.50,27.9
2019-11-07,07:10:00,WET,5.97,4.03,93.3,771.67,30.0
2019-11-07,07:15:00,WET,9.20,3.95,94.5,772.00,30.7
2019-11-07,07:20:00,WET,6.93,3.90,87.0,772.00,34.7
2019-11-07,07:25:00,WET,6.00,3.95,88.0,772.00,37.4
2019-11-07,07:30:00,WET,7.90,3.67,97.0,772.00,44.8
2019-11-07,07:35:00,WET,6.90,4.05,98.0,771.50,50.7
2019-11-07,07:40:00,WET,4.73,3.80,97.3,772.00,57.6
2019-11-07,07:45:00,WET,8.60,3.80,97.0,772.00,57.2
2019-11-07,07:50:00,WET,10.20,3.87,98.0,772.00,61.0
2019-11-07,07:55:00,WET,8.05,4.05,98.0,772.00,67.4
2019-11-07,08:00:00,WET,7.20,4.17,99.0,772.00,78.0
2019-11-07,08:05:00,WET,8.10,4.25,99.0,772.00,80.0
2019-11-07,08:10:00,WET,7.50,4.37,99.0,772.00,109.6
2019-11-07,08:15:00,WET,7.95,4.35,99.0,772.00,122.2
2019-11-07,08:20:00,WET,7.23,4.63,99.0,772.00,109.7
2019-11-07,08:25:00,WET,7.05,4.90,99.0,772.00,98.2
2019-11-07,08:30:00,WET,9.20,5.00,99.0,772.00,124.2
2019-11-07,08:35:00,WET,7.40,5.00,99.0,772.00,141.6
2019-11-07,08:40:00,WET,6.37,5.03,99.0,772.00,170.3
2019-11-07,08:45:00,WET,5.35,5.05,99.0,772.00,172.2
2019-11-07,08:50:00,WET,6.90,4.97,99.0,772.00,214.7
2019-11-07,08:55:00,WET,6.85,5.00,99.0,772.00,183.1
2019-11-07,09:00:00,WET,6.33,5.07,99.0,772.00,165.2
2019-11-07,09:05:00,WET,7.90,4.95,99.0,772.00,178.8
2019-11-07,09:10:00,WET,6.60,4.70,99.0,772.00,207.9
2019-11-07,09:15:00,WET,7.35,4.60,99.0,773.00,150.8
2019-11-07,09:20:00,WET,7.83,5.00,99.0,772.33,203.2
2019-11-07,09:25:00,WET,6.30,5.15,99.0,773.00,224.1
2019-11-07,09:30:00,WET,5.17,4.93,99.0,773.00,308.0
2019-11-07,09:35:00,WET,7.20,4.90,99.0,772.00,238.8
2019-11-07,09:40:00,WET,3.13,4.80,99.0,772.67,241.6
2019-11-07,09:45:00,WET,7.40,4.55,99.0,773.00,243.6
2019-11-07,09:50:00,WET,6.67,4.57,99.0,772.33,240.5
2019-11-07,09:55:00,WET,6.80,4.65,99.0,772.50,265.9
2019-11-07,10:00:00,WET,7.70,4.40,99.0,772.67,287.7
2019-11-07,10:05:00,WET,9.60,4.35,99.0,773.00,200.9
2019-11-07,10:10:00,WET,7.63,4.60,99.0,772.33,257.0
2019-11-07,10:15:00,WET,6.70,4.90,99.0,773.00,281.1
2019-11-07,10:20:00,WET,8.47,5.07,99.0,773.00,301.5
2019-11-07,10:25:00,WET,7.75,5.15,99.5,773.00,384.2
2019-11-07,10:30:00,WET,9.53,5.33,99.0,773.00,352.5
2019-11-07,10:35:00,WET,6.40,5.55,99.0,773.00,313.2
2019-11-07,10:40:00,WET,8.60,5.70,99.0,773.00,376.7
2019-11-07,10:45:00,WET,8.15,5.75,99.0,773.00,323.1
2019-11-07,10:50:00,WET,8.37,5.83,99.0,773.00,320.5
2019-11-07,10:55:00,WET,9.75,5.85,99.0,773.00,345.9
2019-11-07,11:00:00,WET,9.50,5.90,99.0,773.00,353.5
2019-11-07,11:05:00,WET,9.10,5.75,99.0,772.50,456.4
2019-11-07,11:10:00,WET,8.80,5.80,99.0,772.67,328.2
2019-11-07,11:15:00,WET,9.05,5.70,99.0,772.50,412.8
2019-11-07,11:20:00,WET,10.17,5.87,99.0,773.00,400.7
2019-11-07,11:25:00,WET,8.35,5.70,99.0,772.00,421.6
2019-11-07,11:30:00,WET,6.90,5.83,99.0,773.00,356.4
2019-11-07,11:35:00,WET,7.05,5.80,99.0,772.50,315.6
2019-11-07,11:40:00,WET,9.10,5.97,99.0,772.67,603.6
2019-11-07,11:45:00,WET,6.90,6.10,99.0,772.50,445.1
2019-11-07,11:50:00,WET,7.00,6.13,99.0,772.67,604.1
2019-11-07,11:55:00,WET,8.95,6.15,99.0,773.00,599.1
2019-11-07,12:00:00,WET,8.93,6.07,99.0,773.00,349.2
2019-11-07,12:05:00,WET,7.90,6.00,99.0,772.50,487.0
2019-11-07,12:10:00,WET,8.47,5.97,99.0,773.00,329.6
2019-11-07,12:15:00,WET,8.05,5.85,99.0,772.50,636.5
2019-11-07,12:20:00,WET,8.77,6.17,99.0,772.67,411.3
2019-11-07,12:25:00,WET,8.00,6.20,99.0,772.00,409.3
2019-11-07,12:30:00,WET,7.20,6.40,99.0,772.67,655.2
2019-11-07,12:35:00,WET,6.75,6.35,99.0,772.50,633.4
2019-11-07,12:40:00,WET,6.93,6.50,99.0,772.00,537.2
2019-11-07,12:45:00,WET,6.80,6.35,99.0,772.00,551.6
2019-11-07,12:50:00,WET,8.63,6.33,99.0,772.00,595.6
2019-11-07,12:55:00,WET,7.70,6.50,99.0,772.00,479.5
2019-11-07,13:00:00,WET,7.87,6.40,99.0,772.00,516.5
2019-11-07,13:05:00,WET,8.90,6.35,99.0,772.00,453.5
2019-11-07,13:10:00,WET,8.97,6.50,99.0,772.00,582.7
2019-11-07,13:15:00,WET,8.65,6.50,99.0,772.00,525.7
2019-11-07,13:20:00,WET,8.33,6.73,99.0,772.00,319.0
2019-11-07,13:25:00,WET,6.40,6.75,99.0,772.00,378.4
2019-11-07,13:30:00,WET,7.80,6.40,99.0,772.00,452.3
2019-11-07,13:35:00,WET,9.90,6.40,99.0,772.00,468.5
2019-11-07,13:40:00,WET,8.80,6.03,99.0,771.67,408.5
2019-11-07,13:45:00,WET,10.70,6.15,99.0,772.00,463.3
2019-11-07,13:50:00,WET,9.87,5.93,99.0,772.00,750.2
2019-11-07,13:55:00,WET,11.30,5.65,99.0,771.50,787.5
2019-11-07,14:00:00,WET,9.27,5.67,98.3,772.00,588.4
2019-11-07,14:05:00,WET,11.70,5.75,98.0,771.50,646.0
2019-11-07,14:10:00,WET,10.40,5.67,98.0,771.67,361.3
2019-11-07,14:15:00,WET,8.70,5.80,97.5,772.00,626.4
2019-11-07,14:20:00,WET,9.47,6.00,98.0,772.00,589.4
2019-11-07,14:25:00,WET,8.40,6.15,98.0,772.00,398.6
2019-11-07,14:30:00,WET,7.27,6.23,98.0,771.67,619.4
2019-11-07,14:35:00,WET,8.05,6.20,98.0,771.50,646.0
2019-11-07,14:40:00,WET,9.87,6.30,98.3,771.00,595.9
2019-11-07,14:45:00,WET,9.45,6.40,99.0,771.00,738.4
2019-11-07,14:50:00,WET,10.20,6.23,97.7,771.00,660.9
2019-11-07,14:55:00,WET,9.45,6.35,97.0,771.00,627.8
2019-11-07,15:00:00,WET,9.23,6.37,94.0,771.00,577.7
2019-11-07,15:05:00,WET,10.30,6.45,92.5,772.00,640.2
2019-11-07,15:10:00,DRY,9.03,6.50,88.0,771.00,659.9
2019-11-07,15:15:00,DRY,8.30,6.70,78.5,771.00,661.0
2019-11-07,15:20:00,DRY,9.43,6.83,81.3,771.33,640.2
2019-11-07,15:25:00,DRY,8.55,7.05,75.5,771.00,636.2
2019-11-07,15:30:00,DRY,11.20,6.90,80.7,771.67,620.2
2019-11-07,15:35:00,DRY,10.30,7.10,74.0,772.00,601.9
2019-11-07,15:40:00,DRY,9.87,7.40,73.3,771.67,580.4
2019-11-07,15:45:00,DRY,8.65,7.45,71.5,771.50,564.3
2019-11-07,15:50:00,DRY,7.47,7.60,71.0,771.33,547.4
2019-11-07,15:55:00,DRY,9.90,7.70,74.0,772.00,530.2
2019-11-07,16:00:00,DRY,10.30,7.37,79.3,771.67,514.0
2019-11-07,16:05:00,DRY,9.50,7.10,74.5,772.00,498.6
2019-11-07,16:10:00,DRY,8.17,6.97,75.3,771.67,479.9
2019-11-07,16:15:00,DRY,9.35,7.30,75.5,771.50,458.9
2019-11-07,16:20:00,DRY,9.53,7.37,69.7,772.00,443.0
2019-11-07,16:25:00,DRY,7.95,7.60,67.5,772.00,426.2
2019-11-07,16:30:00,DRY,10.07,7.83,66.7,772.00,406.3
2019-11-07,16:35:00,DRY,7.60,7.85,63.5,772.00,386.4
2019-11-07,16:40:00,DRY,6.87,7.87,65.0,772.00,367.9
2019-11-07,16:45:00,DRY,8.70,7.75,65.0,772.00,347.7
2019-11-07,16:50:00,DRY,8.23,7.77,64.3,772.00,327.5
2019-11-07,16:55:00,DRY,7.10,7.25,69.5,772.00,307.7
2019-11-07,17:00:00,DRY,8.50,7.13,70.7,772.00,287.6
2019-11-07,17:05:00,DRY,8.30,7.50,63.0,772.00,267.1
2019-11-07,17:10:00,DRY,5.37,7.80,62.0,772.00,246.5
2019-11-07,17:15:00,DRY,7.20,8.00,50.0,772.00,227.9
2019-11-07,17:20:00,DRY,7.30,7.83,58.0,772.00,207.7
2019-11-07,17:25:00,DRY,7.75,7.60,63.5,772.00,189.2
2019-11-07,17:30:00,DRY,7.40,7.83,57.7,772.00,170.0
2019-11-07,17:35:00,DRY,8.90,7.85,59.5,772.00,151.9
2019-11-07,17:40:00,DRY,9.97,7.53,58.3,772.00,133.5
2019-11-07,17:45:00,DRY,7.30,7.90,50.0,772.00,109.3
2019-11-07,17:50:00,DRY,7.93,7.90,52.0,772.00,86.8
2019-11-07,17:55:00,DRY,10.10,7.45,64.5,772.00,65.4
2019-11-07,18:00:00,DRY,9.67,6.87,65.0,772.00,47.2
2019-11-07,18:05:00,DRY,6.20,7.30,57.5,772.00,32.8
2019-11-07,18:10:00,DRY,10.63,7.27,57.3,772.00,21.6
2019-11-07,18:15:00,DRY,8.90,6.90,70.5,772.00,16.1
2019-11-07,18:20:00,DRY,9.03,6.53,78.0,772.00,12.3
2019-11-07,18:25:00,DRY,10.45,6.70,75.0,772.00,7.1
2019-11-07,18:30:00,DRY,8.40,6.60,69.7,772.00,4.5
2019-11-07,18:35:00,WET,8.55,6.20,86.5,772.00,2.5
2019-11-07,18:40:00,WET,9.23,6.03,87.7,772.00,2.2
2019-11-07,18:45:00,WET,9.00,5.80,85.0,772.00,1.7
2019-11-07,18:50:00,WET,9.33,5.77,90.0,772.00,2.2
2019-11-07,18:55:00,WET,9.70,5.65,85.5,772.00,1.6
2019-11-07,19:00:00,WET,10.57,5.70,92.0,772.00,2.0
2019-11-07,19:05:00,WET,12.35,5.80,94.5,772.00,14.6
2019-11-07,19:10:00,WET,9.47,5.83,94.3,772.00,17.9
2019-11-07,19:15:00,WET,10.00,5.65,95.0,772.00,16.0
2019-11-07,19:20:00,WET,10.03,5.87,82.7,772.00,8.5
2019-11-07,19:25:00,WET,11.70,5.95,75.0,772.00,1.6
2019-11-07,19:30:00,WET,8.63,5.57,84.7,772.00,1.6
2019-11-07,19:35:00,WET,10.90,5.40,82.5,772.00,1.3
2019-11-07,19:40:00,WET,9.30,5.67,81.7,772.00,1.5
2019-11-07,19:45:00,WET,10.05,5.10,94.0,772.00,3.0
2019-11-07,19:50:00,WET,9.93,5.33,97.3,772.00,14.5
2019-11-07,19:55:00,WET,8.95,5.20,97.5,772.00,22.6
2019-11-07,20:00:00,WET,11.30,5.03,97.0,772.00,23.9
2019-11-07,20:05:00,WET,10.95,5.25,98.0,772.00,25.6
2019-11-07,20:10:00,WET,9.87,5.33,98.0,772.00,27.6
2019-11-07,20:15:00,WET,7.20,5.30,98.0,772.00,27.4
2019-11-07,20:20:00,WET,10.77,5.13,98.3,772.00,25.3
2019-11-07,20:25:00,WET,9.30,5.00,96.5,772.00,17.8
2019-11-07,20:30:00,WET,11.20,5.10,97.7,772.00,33.0
2019-11-07,20:35:00,WET,8.55,5.25,98.0,772.00,32.1
2019-11-07,20:40:00,WET,9.83,5.30,99.0,772.33,31.2